Location: Caualo
(45.5667°N, 10.8667°E)
Time: 18:55:05
(UTC+00:00)

NOSS 3-1 (A) - Pass Details

Date: 07 June 2020
Orbit: 755 x 1458 km, 63.4° (Epoch: 16 June)

Event Time Altitude Azimuth Distance (km) Brightness Sun altitude
Rises 01:16:26 0° 321° (NW) 3,950 7.0 -16.3°
Reaches altitude 10° 01:18:58 10° 321° (NW) 3,082 6.4 -16.1°
Maximum altitude 01:26:33 88° 235° (SW) 1,312 4.1 -15.4°
Drops below altitude 10° 01:35:15 10° 145° (SE) 3,508 6.2 -14.6°
Sets 01:38:18 0° 146° (SE) 4,521 6.7 -14.3°
